[[{"header":{"parameterUnit":"m.s-1","parameterCategory":2,"la1":30.2992,"la2":30.254,"lo1":-89.0895,"lo2":-89.0443,"dy":0.0025,"dx":0.0025,"nx":19,"ny":19,"refTime":"2026-04-21T09:00:00:Z","depth":"0","parameterNumber":2,"parameterNumberName":"U-component_of_CURRENTS"},"data":[0,0,0,0.264,0.2642,0.2703,0.2703,0.2798,0.2799,0,0,0,0,0,0,0,0,0,0,0,0.2612,0.2612,0.264,0.2642,0.2703,0.2703,0.2798,0.2799,0,0,0,0,0,0,0,0,0,0,0,0.2612,0.2612,0.2613,0.2642,0.2703,0.2703,0.2798,0.2744,0,0,0,0,0,0,0,0,0,0,0.2682,0.265,0.2612,0.2613,0.2643,0.2703,0.2703,0.2742,0.2748,0.2779,0,0.2793,0,0.2809,0.2807,0.2807,0,0,0,0.263,0.2645,0.2673,0.2613,0.2643,0.2703,0.2672,0.2745,0.2752,0.2787,0.2795,0.2798,0.281,0.2808,0.2808,0.2937,0.2938,0,0,0.2627,0.2612,0.2668,0.2678,0.2667,0.267,0.2674,0.2749,0.2753,0.2795,0.2801,0.2812,0.2808,0.2809,0.2937,0.2938,0,0,0,0.2625,0.2609,0.2635,0.2674,0.2689,0.2672,0.2677,0.2749,0.2761,0.2802,0.2813,0.2809,0.2811,0.2936,0.2937,0.2967,0,0,0,0.2622,0.261,0.2634,0.2624,0.2688,0.2717,0.2675,0.2756,0.2765,0.2812,0.2809,0.2812,0.2936,0.2937,0.2965,0.2975,0,0,0,0.2608,0.2608,0.262,0.2623,0.2657,0.2716,0.2731,0.2757,0.2773,0.2807,0.2812,0.2935,0.2937,0.2963,0.2972,0.3009,0,0,0,0.2584,0.2606,0.2619,0.2653,0.2657,0.2722,0.2731,0.2784,0.2816,0.281,0.2936,0.2937,0.2962,0.2971,0.3007,0.2938,0.2942,0,0,0.2599,0.2607,0.263,0.2644,0.2702,0.2713,0.2783,0.283,0.2845,0.2909,0.2912,0.2965,0.2972,0.3008,0.3012,0.3014,0,0,0,0.2627,0.2636,0.2659,0.2695,0.2746,0.2792,0.2838,0.2867,0.2929,0.2873,0.2983,0.2987,0.3009,0.2964,0.2966,0.2787,0.2943,0.2943,0.2943,0.2598,0.2639,0.2673,0.2726,0.2774,0.2858,0.2908,0.2958,0.2969,0.3005,0.3025,0.309,0.3043,0.3043,0.2861,0.3041,0.3041,0.3042,0.3042,0.2605,0.2619,0.2674,0.2718,0.2788,0.2849,0.2965,0.3,0.3097,0.3075,0.3095,0.3013,0.3047,0.2852,0.3044,0.3043,0.3043,0.3043,0.3043,0.2566,0.2579,0.2611,0.268,0.275,0.2843,0.2942,0.3044,0.3106,0.3157,0.3107,0.3105,0.2921,0.3165,0.3165,0.3165,0.3165,0.3166,0.3166,0.2511,0.2547,0.2564,0.2645,0.2678,0.2772,0.2941,0.302,0.3108,0.3139,0.3138,0.2918,0.3128,0.3109,0.3169,0.3169,0.3168,0.3168,0.3168,0.247,0.2483,0.2505,0.2532,0.262,0.266,0.2843,0.2971,0.3073,0.3092,0.2896,0.3133,0.3117,0.3114,0.3096,0.3149,0.3149,0.3149,0.3149,0.2424,0.244,0.2431,0.2449,0.2508,0.2601,0.2626,0.274,0.28,0.2755,0.2789,0.2709,0.2718,0.2674,0.2681,0.2652,0.2592,0.2591,0.259,0.2397,0.24,0.2357,0.2376,0.2433,0.2494,0.2449,0.2388,0.2457,0.2551,0.2555,0.2579,0.2445,0.2473,0.2393,0.2417,0.2366,0,0]},{"header":{"parameterUnit":"m.s-1","parameterCategory":2,"la1":30.2992,"la2":30.254,"lo1":-89.0895,"lo2":-89.0443,"dy":0.0025,"dx":0.0025,"nx":19,"ny":19,"refTime":"2026-04-21T09:00:00:Z","depth":"0","parameterNumber":3,"parameterNumberName":"V-component_of_CURRENTS"},"data":[0,0,0,0.0026,0.0027,0.0019,0.0019,-0.0005,-0.0005,0,0,0,0,0,0,0,0,0,0,0,0.0026,0.0026,0.0026,0.0027,0.0019,0.0019,-0.0005,-0.0005,0,0,0,0,0,0,0,0,0,0,0,0.0026,0.0026,0.0026,0.0027,0.0019,0.0019,-0.0005,0.0002,0,0,0,0,0,0,0,0,0,0,0.001,0.0016,0.0026,0.0026,0.0027,0.0019,0.0019,0.0003,0.0002,-0.0003,0,0.0,0,0.0002,-0.0006,-0.0006,0,0,0,0.0018,0.0017,0.0016,0.0026,0.0027,0.0019,0.002,0.0002,0.0001,-0.0004,-0.0,-0.0001,0.0002,-0.0006,-0.0006,0.0007,0.0007,0,0,0.0018,0.0021,0.0017,0.0016,0.003,0.002,0.002,0.0002,0.0002,-0.0,-0.0001,0.0001,-0.0006,-0.0006,0.0006,0.0007,0,0,0,0.0025,0.0022,0.0021,0.0016,0.0019,0.002,0.002,0.0003,0.0003,-0.0002,0.0001,-0.0006,-0.0007,0.0006,0.0007,0.0085,0,0,0,0.0025,0.0027,0.0022,0.0023,0.002,0.0014,0.0021,0.0004,0.0002,0.0001,-0.0006,-0.0007,0.0006,0.0006,0.0082,0.0143,0,0,0,0.0025,0.0026,0.0027,0.0023,0.0025,0.0014,0.0013,0.0004,0.0004,-0.0006,-0.0007,0.0006,0.0006,0.0079,0.0138,0.0189,0,0,0,0.0025,0.0048,0.0028,0.0052,0.0025,0.0049,0.0013,0.0019,0.0014,-0.0006,0.0006,0.0006,0.0079,0.0134,0.0186,0.0319,0.0346,0,0,0.0058,0.0051,0.0067,0.005,0.009,0.0049,0.009,0.006,0.002,0.0008,0.0009,0.0083,0.0137,0.0188,0.0355,0.0382,0,0,0,0.0081,0.0097,0.0104,0.0119,0.012,0.0138,0.0107,0.0096,0.0081,0.0022,0.0074,0.0106,0.0136,0.0208,0.0229,0.018,0.0009,0.0009,0.0009,0.0136,0.0138,0.0178,0.0188,0.02,0.0196,0.0208,0.0185,0.0133,0.0135,0.0162,0.0247,0.0324,0.0341,0.0289,0.0138,0.0138,0.0138,0.0138,0.0203,0.0232,0.0239,0.0277,0.0286,0.0313,0.0314,0.0285,0.0303,0.0234,0.0258,0.0278,0.0369,0.0305,0.0143,0.0142,0.0142,0.0141,0.0141,0.0244,0.0263,0.0278,0.0336,0.0389,0.0399,0.0483,0.0444,0.0391,0.0415,0.0473,0.0473,0.0424,0.0414,0.0414,0.0415,0.0415,0.0416,0.0416,0.0278,0.03,0.0356,0.041,0.0463,0.0539,0.0586,0.0624,0.0637,0.0593,0.0593,0.0462,0.0332,0.033,0.0424,0.0422,0.0421,0.0421,0.042,0.0336,0.0343,0.0431,0.0486,0.0617,0.0757,0.0789,0.091,0.0906,0.094,0.0745,0.0682,0.0676,0.0659,0.0665,0.084,0.084,0.084,0.0841,0.0374,0.0385,0.051,0.0615,0.0749,0.086,0.1103,0.1192,0.109,0.1012,0.0886,0.0837,0.0822,0.0817,0.0797,0.0802,0.1008,0.1008,0.1008,0.0419,0.0454,0.0552,0.0655,0.0809,0.0998,0.126,0.1437,0.1236,0.1001,0.0793,0.0786,0.069,0.067,0.0638,0.0614,0.0612,0,0]}],[{"header":{"parameterUnit":"m.s-1","parameterCategory":2,"la1":30.2992,"la2":30.254,"lo1":-89.0895,"lo2":-89.0443,"dy":0.0025,"dx":0.0025,"nx":19,"ny":19,"refTime":"2026-04-21T09:00:00:Z","depth":"2","parameterNumber":2,"parameterNumberName":"U-component_of_CURRENTS"},"data":[0,0,0,0.2043,0.2045,0.2102,0.2102,0.2183,0.2184,0,0,0,0,0,0,0,0,0,0,0,0.2016,0.2017,0.2043,0.2045,0.2102,0.2102,0.2183,0.2184,0,0,0,0,0,0,0,0,0,0,0,0.2016,0.2017,0.2017,0.2045,0.2102,0.2102,0.2183,0.2135,0,0,0,0,0,0,0,0,0,0,0.2078,0.2059,0.2016,0.2017,0.2046,0.2102,0.2102,0.2133,0.2138,0.2163,0,0.2175,0,0.2191,0.219,0.2191,0,0,0,0.2035,0.2055,0.207,0.2017,0.2047,0.2102,0.2073,0.2136,0.2142,0.217,0.2176,0.2179,0.2192,0.2191,0.2192,0.2284,0.2284,0,0,0.2032,0.2027,0.2066,0.2074,0.2066,0.2072,0.2075,0.2139,0.2149,0.2177,0.2182,0.2193,0.2192,0.2193,0.2283,0.2284,0,0,0,0.203,0.2025,0.2038,0.207,0.2085,0.2073,0.2078,0.2145,0.215,0.2183,0.2194,0.2192,0.2194,0.2283,0.2284,0.2309,0,0,0,0.2027,0.2025,0.2037,0.2035,0.2084,0.2117,0.2082,0.2145,0.2153,0.2194,0.2192,0.2194,0.2283,0.2283,0.2307,0.2318,0,0,0,0.2013,0.2024,0.2031,0.2034,0.2064,0.2116,0.2124,0.2146,0.2161,0.2191,0.2195,0.2283,0.2283,0.2306,0.2316,0.2351,0,0,0,0.2004,0.2015,0.2031,0.2054,0.2064,0.2104,0.2123,0.2167,0.2195,0.2193,0.2283,0.2283,0.2306,0.2314,0.235,0.2234,0.2232,0,0,0.2009,0.2016,0.2029,0.2045,0.2077,0.2095,0.2147,0.2197,0.2211,0.226,0.2262,0.2308,0.2316,0.2351,0.2272,0.2268,0,0,0,0.2025,0.2031,0.2045,0.2071,0.2104,0.2145,0.2193,0.2225,0.228,0.2233,0.2314,0.2318,0.234,0.2267,0.2265,0.2287,0.2286,0.2286,0.2286,0.2014,0.2035,0.2053,0.2086,0.2124,0.219,0.2231,0.2282,0.2301,0.2336,0.2343,0.2393,0.2315,0.2312,0.2349,0.2349,0.2349,0.2349,0.2349,0.2007,0.2009,0.2053,0.2077,0.2134,0.2189,0.2283,0.2317,0.2397,0.2388,0.2408,0.2302,0.2311,0.2351,0.2351,0.2351,0.235,0.235,0.235,0.1977,0.1979,0.2006,0.2051,0.2114,0.2196,0.227,0.2355,0.2411,0.244,0.237,0.2368,0.2411,0.2457,0.2457,0.2458,0.2458,0.2458,0.2458,0.1931,0.1954,0.1967,0.2027,0.2061,0.2144,0.2282,0.2335,0.2382,0.2391,0.239,0.243,0.2426,0.2418,0.2461,0.2461,0.246,0.246,0.246,0.1884,0.1902,0.1909,0.1933,0.2001,0.2003,0.2163,0.2217,0.2304,0.2282,0.2362,0.2363,0.2347,0.2346,0.2336,0.2356,0.2356,0.2356,0.2356,0.1847,0.1859,0.1845,0.1851,0.1881,0.1928,0.1877,0.193,0.2068,0.2111,0.2121,0.205,0.206,0.2024,0.2031,0.2013,0.1949,0.1948,0.1947,0.1817,0.1818,0.1781,0.1784,0.1807,0.1792,0.1671,0.1574,0.169,0.1931,0.2044,0.233,0.2251,0.2256,0.2221,0.2225,0.2204,0,0]},{"header":{"parameterUnit":"m.s-1","parameterCategory":2,"la1":30.2992,"la2":30.254,"lo1":-89.0895,"lo2":-89.0443,"dy":0.0025,"dx":0.0025,"nx":19,"ny":19,"refTime":"2026-04-21T09:00:00:Z","depth":"2","parameterNumber":3,"parameterNumberName":"V-component_of_CURRENTS"},"data":[0,0,0,0.0219,0.022,0.0228,0.0228,0.0228,0.0228,0,0,0,0,0,0,0,0,0,0,0,0.0216,0.0216,0.0219,0.022,0.0228,0.0228,0.0228,0.0228,0,0,0,0,0,0,0,0,0,0,0,0.0216,0.0216,0.0216,0.022,0.0228,0.0228,0.0228,0.0223,0,0,0,0,0,0,0,0,0,0,0.0216,0.0213,0.0216,0.0216,0.022,0.0228,0.0228,0.0223,0.0223,0.0223,0,0.0227,0,0.023,0.0228,0.0228,0,0,0,0.0215,0.0213,0.0219,0.0216,0.022,0.0228,0.0223,0.0223,0.0224,0.0223,0.0227,0.0227,0.023,0.0228,0.0228,0.0263,0.0263,0,0,0.0215,0.0213,0.0218,0.0219,0.0226,0.0223,0.0223,0.0224,0.0223,0.0227,0.0227,0.023,0.0228,0.0228,0.0263,0.0263,0,0,0,0.0217,0.0212,0.0218,0.0219,0.0223,0.0223,0.0224,0.0223,0.0226,0.0227,0.023,0.0228,0.0228,0.0262,0.0263,0.0327,0,0,0,0.0216,0.0214,0.0218,0.0216,0.0223,0.0224,0.0223,0.0226,0.0227,0.023,0.0228,0.0228,0.0262,0.0263,0.0324,0.0376,0,0,0,0.0215,0.0213,0.0216,0.0216,0.0222,0.0224,0.0227,0.0226,0.0228,0.0228,0.0228,0.0262,0.0262,0.0322,0.0371,0.0415,0,0,0,0.0209,0.0233,0.0216,0.0246,0.0222,0.026,0.0227,0.0246,0.0251,0.0228,0.0262,0.0263,0.0321,0.0368,0.0412,0.0464,0.0482,0,0,0.0241,0.0236,0.0256,0.0243,0.0294,0.0258,0.0308,0.0294,0.0262,0.0259,0.026,0.0325,0.0371,0.0414,0.0513,0.0531,0,0,0,0.0268,0.0285,0.0298,0.032,0.0333,0.0356,0.0337,0.0328,0.0322,0.0269,0.0325,0.0352,0.0377,0.0402,0.0415,0.0267,0.0267,0.0267,0.0267,0.0309,0.0324,0.0371,0.0393,0.0414,0.0423,0.0438,0.0421,0.0376,0.038,0.0403,0.0482,0.0508,0.0519,0.0388,0.0389,0.0389,0.0389,0.0389,0.0378,0.0413,0.0431,0.048,0.0498,0.0534,0.054,0.0515,0.0527,0.0468,0.0488,0.0467,0.0538,0.0394,0.0393,0.0393,0.0392,0.0392,0.0391,0.0414,0.0437,0.046,0.0533,0.0593,0.0613,0.0691,0.0658,0.0604,0.0624,0.0633,0.0632,0.0532,0.0623,0.0623,0.0624,0.0624,0.0625,0.0625,0.0442,0.0472,0.0529,0.0598,0.0655,0.0734,0.0781,0.0803,0.0782,0.073,0.0729,0.0561,0.0553,0.0546,0.0631,0.063,0.0629,0.0629,0.0628,0.0499,0.0505,0.0596,0.0654,0.0795,0.0919,0.0949,0.0997,0.0982,0.0976,0.0784,0.0778,0.0767,0.0755,0.0753,0.0887,0.0887,0.0887,0.0887,0.053,0.0542,0.0662,0.0769,0.0908,0.1009,0.1155,0.1145,0.1044,0.0955,0.0951,0.09,0.0889,0.088,0.0865,0.0862,0.1026,0.1026,0.1026,0.0573,0.0604,0.0692,0.0796,0.0961,0.1116,0.1246,0.121,0.1044,0.1028,0.0939,0.0903,0.0816,0.0803,0.0774,0.0757,0.0746,0,0]}],[{"header":{"parameterUnit":"m.s-1","parameterCategory":2,"la1":30.2992,"la2":30.254,"lo1":-89.0895,"lo2":-89.0443,"dy":0.0025,"dx":0.0025,"nx":19,"ny":19,"refTime":"2026-04-21T09:00:00:Z","depth":"4","parameterNumber":2,"parameterNumberName":"U-component_of_CURRENTS"},"data":[0,0,0,0.12,0.1202,0.1291,0.1292,0.1365,0.1366,0,0,0,0,0,0,0,0,0,0,0,0.1172,0.1173,0.12,0.1202,0.1291,0.1292,0.1365,0.1366,0,0,0,0,0,0,0,0,0,0,0,0.1171,0.1172,0.1173,0.1202,0.1291,0.1292,0.1365,0.1308,0,0,0,0,0,0,0,0,0,0,0.1226,0.1218,0.1172,0.1173,0.1203,0.1291,0.1292,0.1306,0.1312,0.1313,0,0.1333,0,0.1349,0.137,0.137,0,0,0,0.1203,0.1213,0.1225,0.1173,0.1204,0.1291,0.1251,0.1309,0.1316,0.1321,0.1334,0.1337,0.1351,0.137,0.1371,0.1441,0.1442,0,0,0.1198,0.1199,0.1221,0.1229,0.1234,0.1248,0.1254,0.1314,0.133,0.1334,0.1339,0.1352,0.1371,0.1371,0.1441,0.1441,0,0,0,0.1183,0.1195,0.1207,0.1226,0.1245,0.1251,0.1257,0.1327,0.1328,0.134,0.1353,0.1371,0.1372,0.1441,0.1441,0.1484,0,0,0,0.118,0.1186,0.1205,0.1208,0.1244,0.1296,0.127,0.1324,0.1332,0.1352,0.1371,0.1372,0.144,0.1441,0.1482,0.1482,0,0,0,0.1166,0.1185,0.1195,0.1207,0.1244,0.1295,0.1301,0.1326,0.1339,0.137,0.1373,0.144,0.1441,0.148,0.148,0.1527,0,0,0,0.1164,0.1176,0.1195,0.1218,0.1243,0.1283,0.1301,0.1352,0.1382,0.1371,0.144,0.1441,0.148,0.1478,0.1525,0.1319,0,0,0,0.1169,0.1178,0.1188,0.1206,0.1235,0.127,0.1322,0.1377,0.1391,0.1417,0.1419,0.1483,0.148,0.1527,0.1367,0,0,0,0,0.1181,0.1188,0.12,0.123,0.1262,0.1314,0.1366,0.1394,0.1455,0.1413,0.1487,0.1483,0.1512,0.1385,0.1445,0.1445,0.1445,0.1445,0.1444,0.1184,0.1196,0.1213,0.124,0.1279,0.1355,0.1402,0.1451,0.1468,0.1508,0.1522,0.1588,0.1456,0.1536,0.1536,0.1536,0.1536,0.1536,0.1537,0.1172,0.1171,0.1216,0.1239,0.1303,0.1364,0.1449,0.1492,0.157,0.1559,0.1587,0.1443,0.1541,0.154,0.1539,0.1539,0.1539,0.1538,0.1538,0.1148,0.1146,0.1181,0.123,0.1304,0.1387,0.1457,0.1542,0.16,0.1637,0.1526,0.162,0.1613,0.1674,0.1674,0.1674,0.1675,0.1675,0.1675,0.1104,0.113,0.1156,0.1219,0.1262,0.1349,0.148,0.1525,0.1612,0.154,0.1663,0.1635,0.163,0.1621,0.1678,0.1678,0.1677,0.1677,0.1677,0.1048,0.1085,0.1103,0.114,0.1213,0.1252,0.1402,0.1447,0.1491,0.1474,0.1491,0.1499,0.1465,0.1465,0.1448,0.1456,0.1454,0.1451,0,0.1015,0.1031,0.105,0.1066,0.1085,0.1175,0.1175,0.1255,0.1336,0.1286,0.1494,0.1512,0.1516,0.1475,0.1471,0.145,0,0,0,0.0983,0.0995,0.0986,0.1006,0.1005,0.1046,0.1163,0.1145,0.1323,0.1303,0.139,0.1406,0.1567,0.1689,0.1656,0.165,0.1634,0,0]},{"header":{"parameterUnit":"m.s-1","parameterCategory":2,"la1":30.2992,"la2":30.254,"lo1":-89.0895,"lo2":-89.0443,"dy":0.0025,"dx":0.0025,"nx":19,"ny":19,"refTime":"2026-04-21T09:00:00:Z","depth":"4","parameterNumber":3,"parameterNumberName":"V-component_of_CURRENTS"},"data":[0,0,0,0.0255,0.0256,0.0285,0.0285,0.0314,0.0314,0,0,0,0,0,0,0,0,0,0,0,0.0245,0.0245,0.0255,0.0256,0.0285,0.0285,0.0313,0.0314,0,0,0,0,0,0,0,0,0,0,0,0.0245,0.0245,0.0246,0.0256,0.0285,0.0285,0.0313,0.0293,0,0,0,0,0,0,0,0,0,0,0.0265,0.0258,0.0245,0.0246,0.0256,0.0285,0.0285,0.0292,0.0294,0.0298,0,0.0306,0,0.0311,0.0316,0.0316,0,0,0,0.0254,0.0256,0.0265,0.0246,0.0256,0.0285,0.0271,0.0293,0.0296,0.0301,0.0306,0.0307,0.0312,0.0316,0.0316,0.0362,0.0362,0,0,0.0252,0.0249,0.0264,0.0267,0.0268,0.027,0.0272,0.0295,0.0298,0.0306,0.0308,0.0312,0.0316,0.0316,0.0362,0.0362,0,0,0,0.0249,0.0247,0.0256,0.0266,0.0272,0.0271,0.0273,0.0297,0.0301,0.0308,0.0312,0.0316,0.0316,0.0361,0.0362,0.0405,0,0,0,0.0248,0.0246,0.0256,0.0254,0.0272,0.0286,0.0275,0.0299,0.0302,0.0312,0.0316,0.0317,0.0361,0.0361,0.0403,0.0432,0,0,0,0.0243,0.0245,0.025,0.0253,0.0267,0.0286,0.0291,0.03,0.0304,0.0316,0.0317,0.0361,0.0361,0.0401,0.0429,0.0456,0,0,0,0.0236,0.0257,0.025,0.0279,0.0267,0.0307,0.0291,0.0318,0.0332,0.0316,0.0361,0.0362,0.0401,0.0427,0.0454,0.0439,0,0,0,0.0261,0.026,0.0279,0.0273,0.0321,0.0303,0.0351,0.0357,0.0342,0.0352,0.0353,0.0404,0.0428,0.0456,0.048,0,0,0,0,0.0286,0.0301,0.0314,0.0339,0.0358,0.0384,0.0385,0.0384,0.0393,0.0353,0.0406,0.042,0.0436,0.0421,0.0365,0.0365,0.0365,0.0365,0.0365,0.0313,0.033,0.0372,0.0399,0.0423,0.0442,0.0459,0.0456,0.0433,0.0441,0.0457,0.051,0.0496,0.0452,0.0452,0.0453,0.0453,0.0453,0.0453,0.0362,0.0391,0.0418,0.0465,0.049,0.0529,0.054,0.0526,0.0537,0.0502,0.0515,0.0469,0.0457,0.0456,0.0456,0.0455,0.0455,0.0455,0.0454,0.0381,0.0401,0.0432,0.0502,0.0563,0.0591,0.0646,0.0628,0.059,0.0599,0.0575,0.0545,0.054,0.0601,0.0602,0.0602,0.0602,0.0602,0.0602,0.0389,0.0423,0.0476,0.0548,0.0605,0.0674,0.071,0.0714,0.0676,0.0634,0.0614,0.0561,0.0556,0.0549,0.0606,0.0606,0.0605,0.0605,0.0605,0.0419,0.0433,0.0511,0.0569,0.0696,0.0745,0.0786,0.0767,0.0766,0.0723,0.0648,0.0645,0.0629,0.0623,0.0617,0.0698,0.0698,0.0698,0,0.0433,0.0447,0.0547,0.0639,0.0738,0.079,0.0811,0.0806,0.0739,0.0723,0.0748,0.0664,0.066,0.0643,0.0638,0.0632,0,0,0,0.0456,0.0483,0.0551,0.0643,0.0756,0.0792,0.0817,0.0796,0.0752,0.0735,0.0699,0.0699,0.0668,0.0618,0.0587,0.0581,0.0568,0,0]}]]